sat.trackr.live / text

‹ back to catalog

TJS-17

NORAD 63524 · 2025-073A

PAYLOAD ACTIVE UNKNOWN

§ Identity

Operator
Country
PRC
Launch date
2025-04-10
Launch site
XICLF
Launch vehicle
Mass (kg)
RCS (m²)

Purposes: comms

External: N2YO · Heavens-Above · Gunter

§ Orbital elements

Epoch: 2026-05-24T18:22:43.761792Z

Period
1,436.10 min
Inclination
1.0057°
Eccentricity
0.0002820
Mean motion
1.00271529 rev/d
Perigee alt
35,774.8 km
Apogee alt
35,798.6 km
Semi-major
42,164.8 km
B*
0.0000e+0
RAAN
82.8607°
Arg perigee
290.5604°
Mean anomaly
309.1193°
Rev number
405

§ Raw data

TJS-171 63524U 25073A   26144.76578428 -.00000073  00000+0  00000+0 0  99902 63524   1.0057  82.8607 0002820 290.5604 309.1193  1.00271529  4056

JSON: /api/v1/satellites/63524 · /tle

For live sub-satellite position, see the globe view (requires WebGL).

§ Visibility from observer

Set your observer location to see the next 7 days of passes ≥ 10°. The values pass through the URL so the page stays shareable.

No JS? Fill the form by hand. The geolocation button needs JavaScript.